カタログに戻る

STARLINK-33825

運用中通信VLEO
NORAD 63505·PAYLOAD·🇺🇸 United States

打ち上げ Apr 7, 2025 から Vandenberg Space Force Base

Loading…

次のパス (今後24時間)

TLE

最新Source: CelesTrak SupGP

元期: Sep 14, 2026, 21:36 UTC

1 63505C 25071N   26257.90048611 -.00012192  00000+0 -36035-3 0  2578
2 63505  53.1603 339.9969 0001166  78.7015 290.3985 15.34385150    11

AllMySatでSTARLINK-33825をリアルタイム追跡

Download on the App Store